"Pseudo-MPEC" for P11XJXY

Created 2024 Sep 6 16:22:10 UT using Find_Orb

Click here for an explanation of pseudo-MPECs

 
 Astrometry: 
     P11XJXY* C2024 09 01.37783821 12 07.337+03 48 31.17   ~91E7 21.92wXNEOCPF51
     P11XJXY  C2024 09 01.38995421 12 10.628+03 47 58.02   ~91E7 22.08wXNEOCPF51
     P11XJXY  C2024 09 01.42269821 12 19.448+03 46 29.44   ~91E7 21.72wXNEOCPF51
     P11XJXY 3C2024 09 02.40838921 17 38.011+03 04 42.51   ~92Db 21.92GVNEOCPT14
     P11XJXY 3C2024 09 02.40936621 17 38.248+03 04 40.09   ~92Db 22.01GVNEOCPT14
     P11XJXY 3C2024 09 02.41034221 17 38.480+03 04 37.75   ~92Db 21.82GVNEOCPT14
     P11XJXY KC2024 09 03.14738721 21 18.42 +02 35 20.6    ~9347 21.9 GVNEOCPH21
     P11XJXY KC2024 09 03.15316621 21 19.72 +02 35 07.4    ~9347 22.0 GVNEOCPH21
     P11XJXY  C2024 09 05.20784121 29 58.986+01 26 47.91   ~955q 22.2 GVNEOCPH01
     P11XJXY  C2024 09 05.21243321 29 59.815+01 26 39.64   ~955q 22.2 GVNEOCPH01
     P11XJXY KC2024 09 05.22663021 30 02.299+01 26 14.10   ~955q 21.9 GVNEOCPH01
     P11XJXY  C2024 09 05.23204621 30 03.257+01 26 04.45   ~955q 21.7 GVNEOCPH01
     P11XJXY !C2024 09 05.23833 21 30 05.87 +01 25 52.8    ~956b 21.0 GVNEOCP673
     P11XJXY !C2024 09 05.25050 21 30 08.00 +01 25 30.0    ~956b       VNEOCP673

Station data:
(673) Table Mountain Observatory, Wrightwood  (N34.381485 W117.682170)
   US/California.  Observers J. Chesley, J. Pittichova. Measurer W. M. Owen
   Jr. 0.61-m f/16 reflector + CCD.
(F51) Pan-STARRS 1, Haleakala  (N20.707234 W156.255910)  US/Hawaii.
   Observers J. Bulger, T. Lowe, A. Schultz, M. Willman. Measurers K.
   Chambers, S. Chastel, T. de Boer, L. Denneau, J. Fairlamb, H. Flewelling,
   M. Huber, C.-C. Lin, E. Magnier, Y. Ramanjooloo, R. Wainscoat, R. Weryk.
   1.8-m Ritchey-Chrétien + CCD.
(H01) Magdalena Ridge Observatory, Socorro  (N33.984833 W107.189333)  US/New
   Mexico.  Observers W. H. Ryan, E. V. Ryan. Measurer W. H. Ryan. 2.4-m
   f/8.9 reflector + CCD.
(H21) Astronomical Research Observatory, Westfield  (N39.483054 W87.968270)
   US/Illinois.  Observer R. Holmes. Measurers S. Foglia, L. Buzzi, T.
   Linder, R. Holmes. 0.76-m f/3.0 astrograph + CCD0.81-m f/4.0 astrograph +
   CCD0.61-m f/4.5 astrograph + CCD0.40-m f/5.32 astrograph + CCD.
(T14) Mauna Kea-UH/Tholen NEO Follow-Up (CFHT)  (N19.825252 W155.468876)
   US/Hawaii.  Observer R. Weryk. 3.6-m Canada-France-Hawaii Telescope.

Orbital elements:  P11XJXY
   Perihelion 2024 Jun 19.99947 +/- 0.0452 TT = 23:59:14 (JD 2460481.49947)
Epoch 2024 Sep  5.0 TT = JDT 2460558.5   Earth MOID: 0.0135      AutoNEOCP
M  64.39393556 +/- 0.09             (J2000 ecliptic)
n   0.83627913 +/- 0.000686         Peri.  357.05423 +/- 0.08
a   1.11575422 +/- 0.00061          Node   260.63840 +/- 0.07
e   0.1752487 +/- 0.000681          Incl.    0.85364 +/- 0.0026
P   1.179/430.470d         H 27.23  G  0.15   U  7.9
q 0.92021966 +/- 0.000258    Q 1.31128879 +/- 0.00148
From 14 observations 2024 Sept. 1-5; mean residual 0".18
Residuals in arcseconds: 
240901 F51  .14-  .21+    240902 T14  .03+  .01-    240905 H01  .08-  .05-    
240901 F51  .29+  .14-    240903 H21  .01-  .26+    240905 H01  .01+  .03+    
240901 F51  .13-  .01+    240903 H21  .18-  .16-    240905 673  .15+  .60+    
240902 T14  .06-  .02+    240905 H01  .06-  .01-    240905 673  .07-  .38-    
240902 T14  .02+  .04-    240905 H01  .20+  .03-    

Ephemerides (geocentric):
Date (UTC) HH   RA             Dec           delta  r     elong  mag " sig PA
---- --------  ------------   ------------  ------ ------ -----  --- --------
2024 09 06 16  21 35 09.435   +00 47 08.81  .06362 1.0668 157.3 22.4 .448 153
2024 09 06 17  21 35 17.773   +00 46 03.41  .06376 1.0669 157.3 22.4 .453 153
2024 09 06 18  21 35 26.083   +00 44 58.27  .06390 1.0671 157.3 22.4 .458 153
2024 09 06 19  21 35 34.363   +00 43 53.37  .06403 1.0672 157.3 22.4 .462 152
2024 09 06 20  21 35 42.615   +00 42 48.72  .06417 1.0673 157.3 22.5 .467 152
2024 09 06 21  21 35 50.838   +00 41 44.32  .06431 1.0674 157.3 22.5 .472 152
2024 09 06 22  21 35 59.032   +00 40 40.17  .06445 1.0676 157.3 22.5 .477 152
2024 09 06 23  21 36 07.198   +00 39 36.26  .06458 1.0677 157.3 22.5 .482 151
2024 09 07 00  21 36 15.336   +00 38 32.59  .06472 1.0678 157.3 22.5 .487 151
2024 09 07 01  21 36 23.446   +00 37 29.16  .06486 1.0679 157.3 22.5 .492 151
2024 09 07 02  21 36 31.528   +00 36 25.98  .06500 1.0680 157.3 22.5 .496 151
2024 09 07 03  21 36 39.583   +00 35 23.04  .06514 1.0682 157.3 22.5 .501 150
2024 09 07 04  21 36 47.610   +00 34 20.33  .06527 1.0683 157.3 22.5 .506 150
2024 09 07 05  21 36 55.610   +00 33 17.86  .06541 1.0684 157.4 22.5 .511 150
2024 09 07 06  21 37 03.583   +00 32 15.63  .06555 1.0685 157.4 22.5 .516 150
2024 09 07 07  21 37 11.529   +00 31 13.63  .06569 1.0686 157.4 22.5 .521 150
2024 09 07 08  21 37 19.448   +00 30 11.86  .06583 1.0688 157.4 22.5 .526 149
2024 09 07 09  21 37 27.341   +00 29 10.33  .06597 1.0689 157.4 22.5 .531 149
2024 09 07 10  21 37 35.207   +00 28 09.03  .06611 1.0690 157.4 22.5 .536 149
2024 09 07 11  21 37 43.047   +00 27 07.95  .06624 1.0691 157.4 22.5 .541 149
2024 09 07 12  21 37 50.861   +00 26 07.11  .06638 1.0692 157.4 22.5 .545 149
2024 09 07 13  21 37 58.649   +00 25 06.49  .06652 1.0694 157.4 22.5 .550 149
2024 09 07 14  21 38 06.412   +00 24 06.10  .06666 1.0695 157.4 22.5 .555 149
2024 09 07 15  21 38 14.148   +00 23 05.94  .06680 1.0696 157.4 22.5 .560 148
2024 09 07 16  21 38 21.859   +00 22 06.00  .06694 1.0697 157.4 22.5 .565 148
2024 09 07 17  21 38 29.545   +00 21 06.28  .06708 1.0698 157.4 22.5 .570 148
2024 09 07 18  21 38 37.206   +00 20 06.79  .06722 1.0700 157.4 22.6 .575 148
2024 09 07 19  21 38 44.842   +00 19 07.51  .06736 1.0701 157.4 22.6 .580 148
2024 09 07 20  21 38 52.453   +00 18 08.46  .06750 1.0702 157.4 22.6 .585 148
2024 09 07 21  21 39 00.039   +00 17 09.62  .06764 1.0703 157.4 22.6 .590 148
2024 09 07 22  21 39 07.601   +00 16 11.00  .06778 1.0704 157.4 22.6 .595 148
2024 09 07 23  21 39 15.139   +00 15 12.60  .06792 1.0706 157.4 22.6 .600 147
2024 09 08 00  21 39 22.652   +00 14 14.41  .06806 1.0707 157.4 22.6 .605 147
2024 09 08 01  21 39 30.141   +00 13 16.44  .06820 1.0708 157.4 22.6 .610 147
2024 09 08 02  21 39 37.606   +00 12 18.68  .06834 1.0709 157.4 22.6 .615 147
2024 09 08 03  21 39 45.048   +00 11 21.13  .06848 1.0710 157.4 22.6 .619 147
2024 09 08 04  21 39 52.466   +00 10 23.80  .06862 1.0712 157.4 22.6 .624 147
2024 09 08 05  21 39 59.860   +00 09 26.67  .06876 1.0713 157.4 22.6 .629 147
2024 09 08 06  21 40 07.231   +00 08 29.76  .06890 1.0714 157.4 22.6 .634 147
2024 09 08 07  21 40 14.579   +00 07 33.05  .06904 1.0715 157.4 22.6 .639 147
2024 09 08 08  21 40 21.903   +00 06 36.55  .06918 1.0716 157.4 22.6 .644 147
2024 09 08 09  21 40 29.205   +00 05 40.25  .06932 1.0718 157.4 22.6 .649 147
2024 09 08 10  21 40 36.484   +00 04 44.16  .06946 1.0719 157.4 22.6 .654 147
2024 09 08 11  21 40 43.741   +00 03 48.27  .06960 1.0720 157.4 22.6 .659 147
2024 09 08 12  21 40 50.975   +00 02 52.59  .06974 1.0721 157.4 22.6 .663 146
2024 09 08 13  21 40 58.186   +00 01 57.11  .06988 1.0723 157.4 22.6 .668 146
2024 09 08 14  21 41 05.375   +00 01 01.83  .07002 1.0724 157.4 22.6 .673 146
2024 09 08 15  21 41 12.543   +00 00 06.75  .07016 1.0725 157.4 22.6 .678 146